NORSAT 1

导读

**NORSAT 1卫星摘要** NORSAT 1是一颗由挪威(NO)开发的卫星,于2017年7月14日成功发射。该卫星搭载船舶自动识别系统(AIS),运行于近地轨道,可接收全球海域船舶信号,实现对海上船舶航行的全域监控,填补了传统岸基监控覆盖盲区,助力海事管理与航行安全保障,服务全球海事航运效率提升。卫星依托低轨优势,能同时处理多通道AIS数据,性能稳定可靠。(120字)

基本信息
目录编号:
42826
目录名称:
NORSAT 1
国际标识:
2017-042B
轨道中心:
EARTH
卫星名称:
NORSAT 1
卫星全名:
--
卫星状态:
在轨 (已飞行3339 天)
发射日期:
2017-07-14 UTC
国别 :
挪威 (NO)
星等 :
--
轨道信息
数据来源 国际轨道数据
星历时间: 2026-09-04T18:11:42+0800
10小时前
查看轨道信息
半长轴: 6899.408km
偏心率: 0.0007369
轨道倾角: 97.453°
近地点辐角 157.845°
升交点赤经 53.459°
平近点角 202.310°
近地点: 516.186km
远地点: 526.356km
周期: 95.056分钟
每日圈数: 15.149037
详细信息
使用方式:
暂无
2D轨道图
3D轨道图
轨道高度分析图
轨道倾角分析图
轨道综合分析图
查看轨道综合分析图
交会数据列表
事件ID 空间交会对象 最接近时刻(TCA) 交会距离 交会风险概率(CRP) 交会风险指数(CRI) 操作
CDM_260905-165204-282606-654622
NORSAT 1 (42826)
SJ-30B (66546)
2026-09-05T
16:52:37+0000
1.559 km
极远距离
5.228249E-6 低风险 0.49
CDM_260907-071203-876304-282621
CP5 (38763)
NORSAT 1 (42826)
2026-09-07T
07:12:35+0000
2.452 km
极远距离
1.832662E-6 低风险 0.4
CDM_260906-161204-282605-405121
NORSAT 1 (42826)
2026-09-06T
16:12:02+0000
2.895 km
极远距离
1.387823E-6 低风险 0.38